Location: Maccacari
(45.1333°N, 11.1333°E)
Time: 07:22:56
(UTC+00:00)

H-2A R/B - Pass Details

Date: 18 September 2020
Orbit: 734 x 836 km, 98.2° (Epoch: 29 October)

Event Time Altitude Azimuth Distance (km) Brightness Sun altitude
Rises 19:12:58 0° 194° (SSW) 3,156 5.1 -20.1°
Reaches altitude 10° 19:15:30 10° 206° (SSW) 2,245 4.4 -20.5°
Maximum altitude 19:19:45 29° 266° (W) 1,364 3.9 -21.2°
Drops below altitude 10° 19:24:07 10° 325° (NW) 2,301 5.3 -21.9°
Sets 19:26:45 0° 337° (NNW) 3,248 6.0 -22.3°
